Year,Month,Day,Hour,Minute,Value (Times are PST for temperature in C)
2010,06,17,08,19,13.60
2010,06,17,08,20,13.60
2010,06,17,08,21,13.60
2010,06,17,08,22,13.60
2010,06,17,08,23,13.70
2010,06,17,08,24,13.70
2010,06,17,08,25,13.70
2010,06,17,08,26,13.70
2010,06,17,08,27,13.80
2010,06,17,08,28,13.80
2010,06,17,08,29,13.80
2010,06,17,08,30,13.90
2010,06,17,08,31,13.90
2010,06,17,08,32,14.00
2010,06,17,08,33,14.00
2010,06,17,08,34,14.00
2010,06,17,08,35,14.10
2010,06,17,08,36,14.10
2010,06,17,08,37,14.10
2010,06,17,08,38,14.10
2010,06,17,08,39,14.10
2010,06,17,08,40,14.10
2010,06,17,08,41,14.10
2010,06,17,08,42,14.10
2010,06,17,08,43,14.20
2010,06,17,08,44,14.20
2010,06,17,08,45,14.20
2010,06,17,08,46,14.20
2010,06,17,08,47,14.20
2010,06,17,08,48,14.20
2010,06,17,08,49,14.20
2010,06,17,08,50,14.20
2010,06,17,08,51,14.20
2010,06,17,08,52,14.20
2010,06,17,08,53,14.30
2010,06,17,08,54,14.30
2010,06,17,08,55,14.30
2010,06,17,08,56,14.30
2010,06,17,08,57,14.40
2010,06,17,08,58,14.40
2010,06,17,08,59,14.50
2010,06,17,09,00,14.50
2010,06,17,09,01,14.60
2010,06,17,09,02,14.70
2010,06,17,09,03,14.80
2010,06,17,09,04,14.80
2010,06,17,09,05,15.00
2010,06,17,09,06,15.00
2010,06,17,09,07,15.00
2010,06,17,09,08,15.00
2010,06,17,09,09,15.00
2010,06,17,09,10,15.00
2010,06,17,09,11,15.00
2010,06,17,09,12,15.00
2010,06,17,09,13,14.90
2010,06,17,09,14,14.80
2010,06,17,09,15,14.80
2010,06,17,09,16,14.70
2010,06,17,09,17,14.70
2010,06,17,09,18,14.70
2010,06,17,09,19,14.70
2010,06,17,09,20,14.70
2010,06,17,09,21,14.70
2010,06,17,09,22,14.80
2010,06,17,09,23,14.80
2010,06,17,09,24,14.80
2010,06,17,09,25,14.80
2010,06,17,09,26,14.90
2010,06,17,09,27,15.00
2010,06,17,09,28,15.00
2010,06,17,09,29,15.00
2010,06,17,09,30,15.00
2010,06,17,09,31,15.00
2010,06,17,09,32,15.00
2010,06,17,09,33,15.00
2010,06,17,09,34,15.10
2010,06,17,09,35,15.10
2010,06,17,09,36,15.20
2010,06,17,09,37,15.20
2010,06,17,09,38,15.20
2010,06,17,09,39,15.20
2010,06,17,09,40,15.20
2010,06,17,09,41,15.20
2010,06,17,09,42,15.20
2010,06,17,09,43,15.20
2010,06,17,09,44,15.20
2010,06,17,09,45,15.10
2010,06,17,09,46,15.00
2010,06,17,09,47,15.00
2010,06,17,09,48,15.00
2010,06,17,09,49,15.00
2010,06,17,09,50,15.00
2010,06,17,09,51,15.00
2010,06,17,09,52,15.00
2010,06,17,09,53,14.90
2010,06,17,09,54,14.90
2010,06,17,09,55,14.80
2010,06,17,09,56,14.80
2010,06,17,09,57,14.80
2010,06,17,09,58,14.70
2010,06,17,09,59,14.70
2010,06,17,10,00,14.70
2010,06,17,10,01,14.70
2010,06,17,10,02,14.70
2010,06,17,10,03,14.80
2010,06,17,10,04,14.80
2010,06,17,10,05,14.80
2010,06,17,10,06,14.80
2010,06,17,10,07,14.80
2010,06,17,10,08,14.70
2010,06,17,10,09,14.70
2010,06,17,10,10,14.80
2010,06,17,10,11,14.80
2010,06,17,10,12,14.80
2010,06,17,10,13,14.80
2010,06,17,10,14,14.80
2010,06,17,10,15,14.80
2010,06,17,10,16,14.80
2010,06,17,10,17,14.80
2010,06,17,10,18,14.80
2010,06,17,10,19,14.80
2010,06,17,10,20,14.80
2010,06,17,10,21,14.90
2010,06,17,10,22,14.90
2010,06,17,10,23,14.90
2010,06,17,10,24,14.90
2010,06,17,10,25,14.90
2010,06,17,10,26,14.80
2010,06,17,10,27,14.80
2010,06,17,10,28,14.80
2010,06,17,10,29,14.80
2010,06,17,10,30,14.80
2010,06,17,10,31,14.80
2010,06,17,10,32,14.80
2010,06,17,10,33,14.80
2010,06,17,10,34,14.80
2010,06,17,10,35,14.80
2010,06,17,10,36,14.70
2010,06,17,10,37,14.70
2010,06,17,10,38,14.70
2010,06,17,10,39,14.70
2010,06,17,10,40,14.70
2010,06,17,10,41,14.60
2010,06,17,10,42,14.60
2010,06,17,10,43,14.50
2010,06,17,10,44,14.50
2010,06,17,10,45,14.50
2010,06,17,10,46,14.40
2010,06,17,10,47,14.40
2010,06,17,10,48,14.40
2010,06,17,10,49,14.30
2010,06,17,10,50,14.30
2010,06,17,10,51,14.30
2010,06,17,10,52,14.40
2010,06,17,10,53,14.40
2010,06,17,10,54,14.40
2010,06,17,10,55,14.40
2010,06,17,10,56,14.40
2010,06,17,10,57,14.40
2010,06,17,10,58,14.40
2010,06,17,10,59,14.40
2010,06,17,11,00,14.40
2010,06,17,11,01,14.40
2010,06,17,11,02,14.40
2010,06,17,11,03,14.40
2010,06,17,11,04,14.40
2010,06,17,11,05,14.40
2010,06,17,11,06,14.40
2010,06,17,11,07,14.40
2010,06,17,11,08,14.40
2010,06,17,11,09,14.30
2010,06,17,11,10,14.30
2010,06,17,11,11,14.30
2010,06,17,11,12,14.30
2010,06,17,11,13,14.30
2010,06,17,11,14,14.30
2010,06,17,11,15,14.30
2010,06,17,11,16,14.30
2010,06,17,11,17,14.30
2010,06,17,11,18,14.20
2010,06,17,11,19,14.20
2010,06,17,11,20,14.20
2010,06,17,11,21,14.10
2010,06,17,11,22,14.10
2010,06,17,11,23,14.00
2010,06,17,11,24,13.90
2010,06,17,11,25,13.90
2010,06,17,11,26,13.80
2010,06,17,11,27,13.80
2010,06,17,11,28,13.80
2010,06,17,11,29,13.80
2010,06,17,11,30,13.80
2010,06,17,11,31,13.90
2010,06,17,11,32,13.90
2010,06,17,11,33,14.00
2010,06,17,11,34,14.10
2010,06,17,11,35,14.10
2010,06,17,11,36,14.20
2010,06,17,11,37,14.20
2010,06,17,11,38,14.30
2010,06,17,11,39,14.40
2010,06,17,11,40,14.50
2010,06,17,11,41,14.50
2010,06,17,11,42,14.60
2010,06,17,11,43,14.60
2010,06,17,11,44,14.70
2010,06,17,11,45,14.70
2010,06,17,11,46,14.70
2010,06,17,11,47,14.80
2010,06,17,11,48,14.80
2010,06,17,11,49,14.90
2010,06,17,11,50,15.00
2010,06,17,11,51,15.00
2010,06,17,11,52,15.00
2010,06,17,11,53,15.00
2010,06,17,11,54,15.00
2010,06,17,11,55,15.00
2010,06,17,11,56,15.00
2010,06,17,11,57,15.00
2010,06,17,11,58,15.00
2010,06,17,11,59,15.00
2010,06,17,12,00,14.90
2010,06,17,12,01,14.80
2010,06,17,12,02,14.80
2010,06,17,12,03,14.70
2010,06,17,12,04,14.60
2010,06,17,12,05,14.60
2010,06,17,12,06,14.70
2010,06,17,12,07,14.70
2010,06,17,12,08,14.70
2010,06,17,12,09,14.80
2010,06,17,12,10,14.70
2010,06,17,12,11,14.70
2010,06,17,12,12,14.60
2010,06,17,12,13,14.50
2010,06,17,12,14,14.40
2010,06,17,12,15,14.30
2010,06,17,12,16,14.20
2010,06,17,12,17,14.20
2010,06,17,12,18,14.20
2010,06,17,12,19,14.20
2010,06,17,12,20,14.20
2010,06,17,12,21,14.10
2010,06,17,12,22,14.10
2010,06,17,12,23,14.10
2010,06,17,12,24,14.10
2010,06,17,12,25,14.10
2010,06,17,12,26,14.00
2010,06,17,12,27,14.00
2010,06,17,12,28,14.00
2010,06,17,12,29,14.00
2010,06,17,12,30,14.10
2010,06,17,12,31,14.10
2010,06,17,12,32,14.10
2010,06,17,12,33,14.20
2010,06,17,12,34,14.20
2010,06,17,12,35,14.20
2010,06,17,12,36,14.30
2010,06,17,12,37,14.30
2010,06,17,12,38,14.30
2010,06,17,12,39,14.40
2010,06,17,12,40,14.40
2010,06,17,12,41,14.40
2010,06,17,12,42,14.40
2010,06,17,12,43,14.50
2010,06,17,12,44,14.60
2010,06,17,12,45,14.70
2010,06,17,12,46,14.70
2010,06,17,12,47,14.70
2010,06,17,12,48,14.80
2010,06,17,12,49,14.80
2010,06,17,12,50,14.80
2010,06,17,12,51,14.70
2010,06,17,12,52,14.60
2010,06,17,12,53,14.50
2010,06,17,12,54,14.50
2010,06,17,12,55,14.40
2010,06,17,12,56,14.40
2010,06,17,12,57,14.40
2010,06,17,12,58,14.40
2010,06,17,12,59,14.40
2010,06,17,13,00,14.50
2010,06,17,13,01,14.50
2010,06,17,13,02,14.40
2010,06,17,13,03,14.40
2010,06,17,13,04,14.40
2010,06,17,13,05,14.40
2010,06,17,13,06,14.40
2010,06,17,13,07,14.40
2010,06,17,13,08,14.40
2010,06,17,13,09,14.40
2010,06,17,13,10,14.50
2010,06,17,13,11,14.50
2010,06,17,13,12,14.60
2010,06,17,13,13,14.70
2010,06,17,13,14,14.70
2010,06,17,13,15,14.70
2010,06,17,13,16,14.70
2010,06,17,13,17,14.70
2010,06,17,13,18,14.60
2010,06,17,13,19,14.70
2010,06,17,13,20,14.70
2010,06,17,13,21,14.70
2010,06,17,13,22,14.70
2010,06,17,13,23,14.60
2010,06,17,13,24,14.60
2010,06,17,13,25,14.60
2010,06,17,13,26,14.60
2010,06,17,13,27,14.60
2010,06,17,13,28,14.60
2010,06,17,13,29,14.60
2010,06,17,13,30,14.60
2010,06,17,13,31,14.60
2010,06,17,13,32,14.70
2010,06,17,13,33,14.70
2010,06,17,13,34,14.80
2010,06,17,13,35,14.80
2010,06,17,13,36,14.90
2010,06,17,13,37,15.00
2010,06,17,13,38,15.00
2010,06,17,13,39,15.00
2010,06,17,13,40,15.00
2010,06,17,13,41,15.00
2010,06,17,13,42,15.00
2010,06,17,13,43,15.00
2010,06,17,13,44,15.00
2010,06,17,13,45,15.00
2010,06,17,13,46,15.00
2010,06,17,13,47,15.10
2010,06,17,13,48,15.10
2010,06,17,13,49,15.20
2010,06,17,13,50,15.20
2010,06,17,13,51,15.30
2010,06,17,13,52,15.30
2010,06,17,13,53,15.30
2010,06,17,13,54,15.40
2010,06,17,13,55,15.50
2010,06,17,13,56,15.60
2010,06,17,13,57,15.60
2010,06,17,13,58,15.60
2010,06,17,13,59,15.70
2010,06,17,14,00,15.70
2010,06,17,14,01,15.60
2010,06,17,14,02,15.60
2010,06,17,14,03,15.60
2010,06,17,14,04,15.60
2010,06,17,14,05,15.60
2010,06,17,14,06,15.60
2010,06,17,14,07,15.60
2010,06,17,14,08,15.60
2010,06,17,14,09,15.60
2010,06,17,14,10,15.60
2010,06,17,14,11,15.50
2010,06,17,14,12,15.50
2010,06,17,14,13,15.50
2010,06,17,14,14,15.30
2010,06,17,14,15,15.20
2010,06,17,14,16,15.10
2010,06,17,14,17,15.00
2010,06,17,14,18,15.00
2010,06,17,14,19,15.00
2010,06,17,14,20,15.00
2010,06,17,14,21,14.90
2010,06,17,14,22,14.80
2010,06,17,14,23,14.70
2010,06,17,14,24,14.60
2010,06,17,14,25,14.60
2010,06,17,14,26,14.60
2010,06,17,14,27,14.60
2010,06,17,14,28,14.50
2010,06,17,14,29,14.40
2010,06,17,14,30,14.40
2010,06,17,14,31,14.40
2010,06,17,14,32,14.40
2010,06,17,14,33,14.40
2010,06,17,14,34,14.40
2010,06,17,14,35,14.30
2010,06,17,14,36,14.30
2010,06,17,14,37,14.30
2010,06,17,14,38,14.40
2010,06,17,14,39,14.40
2010,06,17,14,40,14.40
2010,06,17,14,41,14.40
2010,06,17,14,42,14.50
2010,06,17,14,43,14.60
2010,06,17,14,44,14.60
2010,06,17,14,45,14.70
2010,06,17,14,46,14.70
2010,06,17,14,47,14.90
2010,06,17,14,48,15.00
2010,06,17,14,49,15.00
2010,06,17,14,50,15.10
2010,06,17,14,51,15.20
2010,06,17,14,52,15.30
2010,06,17,14,53,15.30
2010,06,17,14,54,15.40
2010,06,17,14,55,15.40
2010,06,17,14,56,15.50
2010,06,17,14,57,15.60
2010,06,17,14,58,15.70
2010,06,17,14,59,15.70
2010,06,17,15,00,15.60
2010,06,17,15,01,15.70
2010,06,17,15,02,15.60
2010,06,17,15,03,15.60
2010,06,17,15,04,15.60
2010,06,17,15,05,15.70
2010,06,17,15,06,15.80
2010,06,17,15,07,15.80
2010,06,17,15,08,15.90
2010,06,17,15,09,15.90
2010,06,17,15,10,15.80
2010,06,17,15,11,15.80
2010,06,17,15,12,15.80
2010,06,17,15,13,15.70
2010,06,17,15,14,15.70
2010,06,17,15,15,15.70
2010,06,17,15,16,15.70
2010,06,17,15,17,15.80
2010,06,17,15,18,15.80
2010,06,17,15,19,15.80
2010,06,17,15,20,16.00
2010,06,17,15,21,16.10
2010,06,17,15,22,16.10
2010,06,17,15,23,16.10
2010,06,17,15,24,16.10
2010,06,17,15,25,16.10
2010,06,17,15,26,16.10
2010,06,17,15,27,16.10
2010,06,17,15,28,16.10
2010,06,17,15,29,16.10
2010,06,17,15,30,16.10
2010,06,17,15,31,16.10
2010,06,17,15,32,15.90
2010,06,17,15,33,15.80
2010,06,17,15,34,15.80
2010,06,17,15,35,15.80
2010,06,17,15,36,15.70
2010,06,17,15,37,15.60
2010,06,17,15,38,15.50
2010,06,17,15,39,15.50
2010,06,17,15,40,15.50
2010,06,17,15,41,15.60
2010,06,17,15,42,15.70
2010,06,17,15,43,15.70
2010,06,17,15,44,15.80
2010,06,17,15,45,15.80
2010,06,17,15,46,15.80
2010,06,17,15,47,15.80
2010,06,17,15,48,15.70
2010,06,17,15,49,15.60
2010,06,17,15,50,15.50
2010,06,17,15,51,15.40
2010,06,17,15,52,15.30
2010,06,17,15,53,15.30
2010,06,17,15,54,15.30
2010,06,17,15,55,15.30
2010,06,17,15,56,15.30
2010,06,17,15,57,15.30
2010,06,17,15,58,15.30
2010,06,17,15,59,15.30
2010,06,17,16,00,15.20
2010,06,17,16,01,15.10
2010,06,17,16,02,15.10
2010,06,17,16,03,15.00
2010,06,17,16,04,15.00
2010,06,17,16,05,15.00
2010,06,17,16,06,15.00
2010,06,17,16,07,15.00
2010,06,17,16,08,15.00
2010,06,17,16,09,15.00
2010,06,17,16,10,15.00
2010,06,17,16,11,15.00
2010,06,17,16,12,15.00
2010,06,17,16,13,15.00
2010,06,17,16,14,15.00
2010,06,17,16,15,15.00
2010,06,17,16,16,15.10
2010,06,17,16,17,15.00
2010,06,17,16,18,15.00
2010,06,17,16,19,15.10
2010,06,17,16,20,15.10
2010,06,17,16,21,15.00
2010,06,17,16,22,15.00
2010,06,17,16,23,15.00
2010,06,17,16,24,15.00
2010,06,17,16,25,14.90
2010,06,17,16,26,14.80
2010,06,17,16,27,14.80
2010,06,17,16,28,14.70
2010,06,17,16,29,14.60
2010,06,17,16,30,14.60
2010,06,17,16,31,14.50
2010,06,17,16,32,14.50
2010,06,17,16,33,14.60
2010,06,17,16,34,14.70
2010,06,17,16,35,14.70
2010,06,17,16,36,14.90
2010,06,17,16,37,15.00
2010,06,17,16,38,15.00
2010,06,17,16,39,15.00
2010,06,17,16,40,15.10
2010,06,17,16,41,15.10
2010,06,17,16,42,15.20
2010,06,17,16,43,15.20
2010,06,17,16,44,15.20
2010,06,17,16,45,15.20
2010,06,17,16,46,15.20
2010,06,17,16,47,15.30
2010,06,17,16,48,15.30
2010,06,17,16,49,15.30
2010,06,17,16,50,15.30
2010,06,17,16,51,15.30
2010,06,17,16,52,15.30
2010,06,17,16,53,15.30
2010,06,17,16,54,15.30
2010,06,17,16,55,15.20
2010,06,17,16,56,15.30
2010,06,17,16,57,15.30
2010,06,17,16,58,15.30
2010,06,17,16,59,15.40
2010,06,17,17,00,15.50
2010,06,17,17,01,15.60
2010,06,17,17,02,15.60
2010,06,17,17,03,15.60
2010,06,17,17,04,15.70
2010,06,17,17,05,15.70
2010,06,17,17,06,15.70
2010,06,17,17,07,15.70
2010,06,17,17,08,15.70
2010,06,17,17,09,15.70
2010,06,17,17,10,15.60
2010,06,17,17,11,15.50
2010,06,17,17,12,15.40
2010,06,17,17,13,15.40
2010,06,17,17,14,15.40
2010,06,17,17,15,15.30
2010,06,17,17,16,15.30
2010,06,17,17,17,15.30
2010,06,17,17,18,15.30
2010,06,17,17,19,15.20
2010,06,17,17,20,15.20
2010,06,17,17,21,15.30
2010,06,17,17,22,15.20
2010,06,17,17,23,15.20
2010,06,17,17,24,15.20
2010,06,17,17,25,15.20
2010,06,17,17,26,15.10
2010,06,17,17,27,15.10
2010,06,17,17,28,15.00
2010,06,17,17,29,15.00
2010,06,17,17,30,15.00
2010,06,17,17,31,14.90
2010,06,17,17,32,14.90
2010,06,17,17,33,14.80
2010,06,17,17,34,14.80
2010,06,17,17,35,14.80
2010,06,17,17,36,14.70
2010,06,17,17,37,14.70
2010,06,17,17,38,14.70
2010,06,17,17,39,14.70
2010,06,17,17,40,14.70
2010,06,17,17,41,14.80
2010,06,17,17,42,14.80
2010,06,17,17,43,14.80
2010,06,17,17,44,14.80
2010,06,17,17,45,14.80
2010,06,17,17,46,14.80
2010,06,17,17,47,14.80
2010,06,17,17,48,14.90
2010,06,17,17,49,15.00
2010,06,17,17,50,15.00
2010,06,17,17,51,15.00
2010,06,17,17,52,15.00
2010,06,17,17,53,14.90
2010,06,17,17,54,14.90
2010,06,17,17,55,14.80
2010,06,17,17,56,14.80
2010,06,17,17,57,14.70
2010,06,17,17,58,14.70
2010,06,17,17,59,14.70
2010,06,17,18,00,14.70
2010,06,17,18,01,14.70
2010,06,17,18,02,14.70
2010,06,17,18,03,14.70
2010,06,17,18,04,14.70
2010,06,17,18,05,14.70
2010,06,17,18,06,14.70
2010,06,17,18,07,14.70
2010,06,17,18,08,14.70
2010,06,17,18,09,14.70
2010,06,17,18,10,14.70
2010,06,17,18,11,14.70
2010,06,17,18,12,14.70
2010,06,17,18,13,14.70
2010,06,17,18,14,14.70
2010,06,17,18,15,14.80
2010,06,17,18,16,14.80
2010,06,17,18,17,14.80
2010,06,17,18,18,14.80
2010,06,17,18,19,14.80
2010,06,17,18,20,14.80
2010,06,17,18,21,14.70
2010,06,17,18,22,14.70
2010,06,17,18,23,14.70
2010,06,17,18,24,14.80
2010,06,17,18,25,14.80
2010,06,17,18,26,14.70
2010,06,17,18,27,14.70
2010,06,17,18,28,14.70
2010,06,17,18,29,14.70
2010,06,17,18,30,14.60
2010,06,17,18,31,14.60
2010,06,17,18,32,14.60
2010,06,17,18,33,14.60
2010,06,17,18,34,14.60
2010,06,17,18,35,14.50
2010,06,17,18,36,14.50
2010,06,17,18,37,14.60
2010,06,17,18,38,14.50
2010,06,17,18,39,14.50
2010,06,17,18,40,14.50
2010,06,17,18,41,14.50
2010,06,17,18,42,14.40
2010,06,17,18,43,14.40
2010,06,17,18,44,14.40
2010,06,17,18,45,14.40
2010,06,17,18,46,14.40
2010,06,17,18,47,14.40
2010,06,17,18,48,14.40
2010,06,17,18,49,14.50
2010,06,17,18,50,14.50
2010,06,17,18,51,14.40
2010,06,17,18,52,14.40
2010,06,17,18,53,14.40
2010,06,17,18,54,14.40
2010,06,17,18,55,14.40
2010,06,17,18,56,14.40
2010,06,17,18,57,14.40
2010,06,17,18,58,14.40
2010,06,17,18,59,14.40
2010,06,17,19,00,14.40
2010,06,17,19,01,14.40
2010,06,17,19,02,14.40
2010,06,17,19,03,14.40
2010,06,17,19,04,14.40
2010,06,17,19,05,14.40
2010,06,17,19,06,14.30
2010,06,17,19,07,14.30
2010,06,17,19,08,14.30
2010,06,17,19,09,14.30
2010,06,17,19,10,14.30
2010,06,17,19,11,14.30
2010,06,17,19,12,14.30
2010,06,17,19,13,14.30
2010,06,17,19,14,14.30
2010,06,17,19,15,14.30
2010,06,17,19,16,14.30
2010,06,17,19,17,14.30
2010,06,17,19,18,14.20
2010,06,17,19,19,14.20
2010,06,17,19,20,14.20
2010,06,17,19,21,14.20
2010,06,17,19,22,14.20
2010,06,17,19,23,14.20
2010,06,17,19,24,14.10
2010,06,17,19,25,14.10
2010,06,17,19,26,14.10
2010,06,17,19,27,14.10
2010,06,17,19,28,14.10
2010,06,17,19,29,14.10
2010,06,17,19,30,14.10
2010,06,17,19,31,14.10
2010,06,17,19,32,14.10
2010,06,17,19,33,14.10
2010,06,17,19,34,14.00
2010,06,17,19,35,14.00
2010,06,17,19,36,14.00
2010,06,17,19,37,14.00
2010,06,17,19,38,14.00
2010,06,17,19,39,14.00
2010,06,17,19,40,14.00
2010,06,17,19,41,14.00
2010,06,17,19,42,14.00
2010,06,17,19,43,14.00
2010,06,17,19,44,14.00
2010,06,17,19,45,14.00
